TimeMST,TemperatureF,Dew PointF,Humidity,Sea Level PressureIn,VisibilityMPH,Wind Direction,Wind SpeedMPH,Gust SpeedMPH,PrecipitationIn,Events,Conditions,WindDirDegrees,DateUTC
12:54 AM,-23.1,-36.0,51,30.62,10.0,SE,4.6,-,N/A,,Clear,140,2013-12-07 07:54:00
1:54 AM,-24.0,-32.1,66,30.61,10.0,SE,5.8,-,N/A,,Clear,130,2013-12-07 08:54:00
2:54 AM,-26.0,-35.0,62,30.61,10.0,SE,5.8,-,N/A,,Clear,140,2013-12-07 09:54:00
3:54 AM,-27.0,-29.9,86,30.61,10.0,SSE,4.6,-,N/A,,Clear,160,2013-12-07 10:54:00
4:54 AM,-24.0,-36.9,51,30.60,10.0,SE,4.6,-,N/A,,Clear,130,2013-12-07 11:54:00
5:54 AM,-22.0,-32.1,60,30.59,10.0,ESE,4.6,-,N/A,,Clear,120,2013-12-07 12:54:00
6:54 AM,-27.9,-38.0,59,30.61,10.0,ESE,5.8,-,N/A,,Clear,110,2013-12-07 13:54:00
7:54 AM,-24.0,-31.0,70,30.58,10.0,SE,6.9,-,N/A,,Clear,130,2013-12-07 14:54:00
8:54 AM,-18.9,-29.9,57,30.56,10.0,SE,4.6,-,N/A,,Clear,130,2013-12-07 15:54:00
9:54 AM,-17.0,-27.0,60,30.54,10.0,East,4.6,-,N/A,,Clear,100,2013-12-07 16:54:00
10:54 AM,-11.9,-20.9,64,30.51,10.0,Calm,Calm,-,N/A,,Clear,0,2013-12-07 17:54:00
11:54 AM,-7.1,-18.9,56,30.45,10.0,Calm,Calm,-,N/A,,Clear,0,2013-12-07 18:54:00
12:54 PM,-5.1,-18.0,54,30.39,10.0,North,3.5,-,N/A,,Clear,360,2013-12-07 19:54:00
1:54 PM,-2.9,-18.0,49,30.37,10.0,NNW,4.6,-,N/A,,Clear,330,2013-12-07 20:54:00
2:54 PM,-6.0,-18.9,54,30.35,10.0,NW,3.5,-,N/A,,Clear,320,2013-12-07 21:54:00
3:54 PM,-9.9,-20.9,59,30.35,10.0,North,5.8,-,N/A,,Clear,350,2013-12-07 22:54:00
4:54 PM,-20.9,-24.0,86,30.39,10.0,WSW,4.6,-,N/A,,Clear,250,2013-12-07 23:54:00
5:54 PM,-18.9,-23.1,81,30.37,10.0,Calm,Calm,-,N/A,,Clear,0,2013-12-08 00:54:00
6:54 PM,-18.9,-25.1,74,30.39,10.0,Calm,Calm,-,N/A,,Clear,0,2013-12-08 01:54:00
7:54 PM,-20.0,-27.9,67,30.36,10.0,Calm,Calm,-,N/A,,Clear,0,2013-12-08 02:54:00
8:54 PM,-20.9,-27.0,73,30.33,10.0,SSE,5.8,-,N/A,,Clear,160,2013-12-08 03:54:00
9:54 PM,-18.9,-29.9,57,30.29,10.0,SSE,6.9,-,N/A,,Clear,150,2013-12-08 04:54:00
10:54 PM,-22.0,-27.9,74,30.25,10.0,ESE,5.8,-,N/A,,Clear,120,2013-12-08 05:54:00
11:54 PM,-18.0,-26.0,67,30.21,10.0,SE,5.8,-,N/A,,Clear,130,2013-12-08 06:54:00